Flag for Switzerland Weather past 2 weeks in Bellinzona, Ticino, Switzerland

Now
77 °F

Mild.


Feels Like: 78 °F
Forecast: 60 / 79 °F
Wind: 9 mph from Northwest

Location: Locarno-Magadino

Current Time: Jul 25, 2014 at 2:19:48 PM

Latest Report: Jul 25, 2014 at 1:00 PM


Visibility: N/A

Pressure: 29.89 "Hg

Humidity: 67%

Dew point: 65 °F

Location of BellinzonaLocation

Historic Weather in Bellinzona — Graph

°F

Bellinzona temperature yesterday

Maximum temperature yesterday: 77 °F (at 3:00 PM)
Minimum temperature yesterday: 64 °F (at 2:00 AM)
Average temperature yesterday: 69 °F

Past Weeks' High & Low Weather Summary

 TemperatureHumidityPressure
High87 °F (Jul 18, 4:00 PM)100% (Jul 24, 2:00 AM)30.15 "Hg (Jul 24, 2:00 AM)
Low54 °F (Jul 11, 6:00 AM)27% (Jul 11, 7:00 PM)29.67 "Hg (Jul 10, 4:00 PM)
Average70 °F75%29.92 "Hg
* Reported Jul 10 1:00 PM — Jul 25 1:00 PM, Bellinzona, Weather by CustomWeather, © 2014

Note: Actual official high and low records may vary slightly from our data, if they occured in-between our weather recording intervals... More about our weather records

Advertising

Bellinzona weather history for previous 24 hours

 ConditionsComfort  
Time TempWeatherWind HumidityBarometerVisibility
1:00 PM
Jul 25
77 °FMild.9 mph67%29.89 "HgN/A
12:00 PM75 °FMild.8 mph63%29.91 "HgN/A
11:00 AM73 °FMild.8 mph65%29.92 "HgN/A
10:00 AM71 °FMild.2 mph68%29.93 "HgN/A
9:00 AM68 °FMild.1 mph70%29.93 "HgN/A
8:00 AM67 °FMild.6 mph77%29.92 "HgN/A
7:00 AM64 °FMild.5 mph88%29.93 "HgN/A
6:00 AM64 °FMild.2 mph90%29.91 "HgN/A
5:00 AM65 °FMild.3 mph88%29.91 "HgN/A
4:00 AM65 °FMild.3 mph91%29.91 "HgN/A
3:00 AM67 °FMild.3 mph84%29.92 "HgN/A
2:00 AM68 °FMild.1 mph89%29.92 "HgN/A
1:00 AM68 °FMild.1 mph91%29.92 "HgN/A
12:00 AM68 °FMild.No wind94%29.92 "HgN/A
11:00 PM
Jul 24
69 °FMild.2 mph85%29.91 "HgN/A
10:00 PM70 °FMild.3 mph81%29.90 "HgN/A
9:00 PM72 °FMild.7 mph73%29.86 "HgN/A
8:00 PM71 °FMild.5 mph79%29.85 "HgN/A
7:00 PM74 °FMild.8 mph69%29.83 "HgN/A
6:00 PM75 °FMild.6 mph69%29.83 "HgN/A
5:00 PM75 °FMild.5 mph63%29.83 "HgN/A
4:00 PM75 °FMild.6 mph66%29.84 "HgN/A
3:00 PM77 °FWarm.6 mph60%29.83 "HgN/A
2:00 PM76 °FMild.5 mph67%29.85 "HgN/A
Weather by CustomWeather, © 2014

See weather overviewHow to use our weather pages